Regional Weather Roundup
Issued by NWS

Home | Current Version | Previous Version | Graphics & Text | Print | Product List | Glossary On
Versions: 1 2 3 4 5 6 7 8 9 10 11 12 13 14 15 16 17 18 19 20 21 22 23 24 25 26 27 28 29 30 31 32 33 34 35 36 37 38 39 40 41 42 43 44 45 46 47 48 49 50
000
ASUS43 KMKX 071159
RWRWI

WISCONSIN REGIONAL WEATHER ROUNDUP
NATIONAL WEATHER SERVICE MILWAUKEE/SULLIVAN WI
600 AM CST SUN FEB 07 2016

NOTE: "FAIR" INDICATES FEW OR NO CLOUDS BELOW 12,000 FEET WITH NO
SIGNIFICANT WEATHER AND/OR OBSTRUCTIONS TO VISIBILITY.

WIZ001-002-006>008-014>016-023>028-071300-
NORTHWEST WISCONSIN

CITY           SKY/WX    TMP DP  RH WIND       PRES   REMARKS
SUPERIOR ARPT  CLOUDY    34  30  86 SW8       29.50F WCI  27
ASHLAND        PTCLDY    28  25  88 W6        29.54S WCI  22
6HR MIN TEMP:  28; 6HR MAX TEMP:  32; 6HR PCP:  0.01;

HAYWARD        CLOUDY    31  27  85 S13       29.55R WCI  21
6HR MIN TEMP:  30; 6HR MAX TEMP:  31; 6HR PCP: TRACE;

SIREN          CLOUDY    33  29  86 SW10      29.55F WCI  25
CUMBERLAND     CLOUDY    32  28  86 SW10      29.57F WCI  24
RICE LAKE      CLOUDY    32  28  86 S10       29.60F WCI  24
CHETEK         CLOUDY    31  28  88 SW5       29.60F WCI  26
LADYSMITH      CLOUDY    32  30  93 S9        29.61F WCI  24
EAU CLAIRE     NOT AVBL
MENOMONIE      CLEAR     31  26  83 S8        29.63F WCI  23
NEW RICHMOND   MOCLDY    30  27  86 SW9       29.61F WCI  22
OSCEOLA        CLOUDY    32  29  87 SW9       29.62F WCI  24
$$

WIZ003>005-009-010-017-018-071300-
NORTH CENTRAL WISCONSIN

CITY           SKY/WX    TMP DP  RH WIND       PRES   REMARKS
MANITOWISH WTR CLOUDY    29  28  96 S7        29.57F WCI  22
ARBOR VITAE    CLOUDY    32  29  90 SW8       29.58F WCI  25
WOODRUFF       CLOUDY    32  29  90 SW8       29.58F WCI  25
RHINELANDER    CLOUDY    29  26  89 SW10      29.59F WCI  20
6HR MIN TEMP:  28; 6HR MAX TEMP:  29; 6HR PCP:  0.01;

EAGLE RIVER    CLOUDY    29  28  95 SW7       29.59F FOG     WCI  22
LAND O LAKES   CLOUDY    29  28  93 SW8       29.59F WCI  21
PHILLIPS       LGT SNOW  30  28  94 S9        29.57F WCI  21
TOMAHAWK       CLOUDY    29  27  90 CALM      29.62F
MEDFORD        LGT SNOW  30  29  98 S8        29.62F WCI  22
MERRILL        LGT SNOW  31  29  94 SW7       29.65F WCI  24
$$

WIZ029-030-035-036-043>047-071300-
CENTRAL WISCONSIN

CITY           SKY/WX    TMP DP  RH WIND       PRES   REMARKS
WAUSAU         CLOUDY    32  28  85 S6        29.62F WCI  26
6HR MIN TEMP:  30; 6HR MAX TEMP:  32; 6HR PCP: TRACE;

MOSINEE        CLEAR     30  28  93 SW9       29.65F WCI  22
MARSHFIELD     CLOUDY    32  26  78 SW9       29.63F WCI  24
6HR MIN TEMP:  30; 6HR MAX TEMP:  32; 6HR PCP: TRACE;

STEVENS POINT  CLOUDY    30  28  90 S7        29.67F WCI  23
WAUPACA        CLOUDY    36  30  80 S6        29.71S WCI  31
WAUTOMA        NOT AVBL
WISC RAPIDS    PTCLDY    33  27  78 SW8       29.68F WCI  26
6HR MIN TEMP:  30; 6HR MAX TEMP:  33; 6HR PCP: TRACE;

CAMP DOUGLAS   NOT AVBL
$$

WIZ011>013-019>022-031-037>040-048>050-071300-
NORTHEAST WISCONSIN

CITY           SKY/WX    TMP DP  RH WIND       PRES   REMARKS
ANTIGO         CLOUDY    30  28  94 SW10      29.64F WCI  21
SHAWANO        CLOUDY    34  30  84 CALM      29.69F
OCONTO         CLOUDY    34  31  88 SW6       29.71S WCI  29
STURGEON BAY   CLOUDY    36  28  75 S12       29.74R WCI  27
6HR MIN TEMP:  28; 6HR MAX TEMP:  36;

GREEN BAY      CLOUDY    36  30  79 S10       29.71F WCI  28
6HR MIN TEMP:  29; 6HR MAX TEMP:  36; 6HR PCP: TRACE;

MANITOWOC      NOT AVBL
APPLETON       CLOUDY    36  28  75 S17       29.70F WCI  25
CLINTONVILLE   CLOUDY    34  30  86 S6        29.69F WCI  29
OSHKOSH        CLOUDY    36  29  75 SW13G23   29.71F WCI  27
6HR MIN TEMP:  30; 6HR MAX TEMP:  37;

$$

WIZ032>034-041-042-053>061-071300-
SOUTHWEST WISCONSIN

CITY           SKY/WX    TMP DP  RH WIND       PRES   REMARKS
LA CROSSE      CLOUDY    34  27  75 S12       29.70F WCI  25
6HR MIN TEMP:  32; 6HR MAX TEMP:  36;

SPARTA         CLOUDY    35  30  81 SW5       29.69F WCI  31
VIROQUA        CLOUDY    34  30  85 SW10      29.70F WCI  26
BOSCOBEL       CLOUDY    38  31  76 SW6       29.75F WCI  33
6HR MIN TEMP:  34; 6HR MAX TEMP:  39;

PRAIRIE DU CHI PTCLDY    37  28  69 SW5       29.76F WCI  34
PLATTEVILLE    CLOUDY    36  31  83 SW12      29.77F WCI  27
$$

WIZ056-057-062-063-064-067-068-071300-
SOUTH CENTRAL WISCONSIN

CITY           SKY/WX    TMP DP  RH WIND       PRES   REMARKS
REEDSBURG      CLOUDY    36  30  79 SW9       29.72F WCI  29
BARABOO/DELLS  CLOUDY    36  29  74 SW14      29.70S WCI  27
LONE ROCK      NOT AVBL
MINERAL POINT  CLOUDY    36  32  87 S15G21    29.73F WCI  26
MADISON        CLOUDY    37  29  72 SW12G21   29.75F WCI  29
6HR MIN TEMP:  32; 6HR MAX TEMP:  37;

MIDDLETON      CLOUDY    38  30  72 SW13G23   29.74F WCI  31
WATERTOWN      CLOUDY    37  31  82 S16       29.76F WCI  27
MONROE         CLOUDY    36  32  87 SW22      29.77F WCI  24
JANESVILLE     CLOUDY    39  30  70 SW13      29.80F WCI  32
$$

WIZ051-052-058>065-066-070>072-071300-
SOUTHEAST WISCONSIN

CITY           SKY/WX    TMP DP  RH WIND       PRES   REMARKS
MILWAUKEE      CLOUDY    36  29  75 S9        29.80F WCI  29
6HR MIN TEMP:  32; 6HR MAX TEMP:  36;

WAUKESHA       PTCLDY    36  28  75 S3        29.81S
MILWAUKEE/TIMM CLOUDY    36  28  75 S10       29.80F WCI  28
RACINE         CLOUDY    38  28  67 SW14G22   29.83F WCI  30
6HR MIN TEMP:  33; 6HR MAX TEMP:  38;

BURLINGTON     CLOUDY    34  28  80 SW15      29.81F WCI  24
KENOSHA        CLOUDY    37  28  70 SW13      29.82F WCI  29
6HR MIN TEMP:  32; 6HR MAX TEMP:  38;

FOND DU LAC    CLOUDY    37  29  72 S20G28    29.71F WCI  27
6HR MIN TEMP:  32; 6HR MAX TEMP:  38;

SHEBOYGAN      CLOUDY    36  29  75 S10       29.74F WCI  28
6HR MIN TEMP:  30; 6HR MAX TEMP:  36;

WEST BEND      CLOUDY    36  30  80 S8G16     29.76F WCI  29
JUNEAU         CLOUDY    36  30  79 S15       29.76F WCI  26
$$

LSZ147-162-071300-
LAKE SUPERIOR

STATION/POSITION TIME  TEMP    WIND        PRES    WAVE
                       AIR SEA DIR/SP/G            HT/PER
                 (UTC) (F)     (DEG/KT/KT) (MB)    (FT/S)
DEVILS ISLAND    1100   32     180/  7/ 10 1000.6F
SAXON HARBOR     1100   34                  999.7
$$

LMZ867-665-643>646-071300-
LAKE MICHIGAN

STATION/POSITION TIME  TEMP    WIND        PRES    WAVE
                       AIR SEA DIR/SP/G            HT/PER
                 (UTC) (F)     (DEG/KT/KT) (MB)    (FT/S)
CHAMBERS ISLAND  1100   34     160/  7/ 15 1006.4F
ALGOMA LAKESHORE 1026          220/ 22/ 25   N/A
KEWAUNEE LAKESHO 1100   35     200/ 10/ 15 1006.7F
SHEBOYGAN LAKESH 1100   35     190/ 21/ 23 1008.6F
PORT WASHINGTON  1100   36     190/  8/ 11 1009.8
MILWAUKEE LAKESH 1110   38     200/ 16/ 18   N/A
KENOSHA   LAKESH 1100   38     200/ 10/ 15 1010.8F
$$

TC  - TEMPERATURE IN CELSIUS
VSB - VISIBILITY IN STATUTE MILES
WCI - WIND CHILL INDEX
HX  - HEAT INDEX




USA.gov is the U.S. government's official web portal to all federal, state and local government web resources and services.